Total_Precipitation_Accumulation
2.34 2.32 2.30 2.28 2.15 2.23 2.47 2.66 2.68 3.03 3.16 2.77 2.38 2.21 2.24 2.31 2.20 2.20 2.07 1.92 1.86 2.06 2.50 2.77 2.66 2.43 2.15 1.87 1.73 1.69 1.57 1.38 1.25 1.10 1.07 1.14 1.15 1.07 0.98 0.93 0.88 0.81 0.74
2.50 2.63 2.50 2.48 2.32 2.28 2.45 2.64 2.83 3.31 3.26 3.07 2.64 2.37 2.32 2.29 2.11 2.06 2.15 2.29 2.12 2.03 2.18 2.55 2.87 2.82 2.65 2.37 2.08 1.93 1.79 1.70 1.51 1.22 1.06 1.12 1.16 1.13 1.11 1.07 0.98 0.85 0.77
2.54 2.57 2.40 2.32 2.39 2.51 2.70 2.72 2.93 3.15 2.86 2.87 2.67 2.43 2.25 2.06 1.91 1.90 2.08 2.24 2.12 2.05 2.19 2.42 2.70 2.83 2.96 2.97 2.84 2.65 2.23 1.93 1.73 1.48 1.24 1.18 1.19 1.13 1.09 1.08 1.03 0.94 0.82
2.43 2.65 2.44 2.30 2.62 2.66 2.79 3.08 3.23 3.20 3.13 3.13 2.88 2.50 2.24 2.13 1.80 1.69 1.69 1.83 2.04 1.84 2.13 2.38 2.47 2.58 2.92 3.31 3.56 3.55 3.11 2.61 2.21 1.90 1.63 1.47 1.42 1.27 1.08 1.01 1.03 0.96 0.79
2.47 2.77 2.73 2.83 2.89 2.99 3.03 2.89 3.32 3.36 3.26 3.27 2.84 2.59 2.24 1.99 1.78 1.57 1.49 1.47 1.71 1.92 2.01 2.06 2.17 2.33 2.80 3.57 3.92 4.00 3.92 3.50 2.85 2.45 2.25 2.08 1.95 1.64 1.29 1.12 1.09 1.02 0.87
2.57 2.99 2.85 2.84 2.93 3.09 3.15 3.13 3.29 3.32 3.07 3.05 2.72 2.56 2.16 1.70 1.61 1.53 1.36 1.36 1.46 1.52 1.78 2.09 2.30 2.05 2.42 3.03 3.46 3.98 4.31 4.04 3.36 2.94 2.77 2.63 2.52 2.19 1.63 1.33 1.28 1.19 1.06
2.56 2.98 2.85 3.09 3.05 3.05 3.07 3.13 3.26 3.18 2.86 3.05 3.13 2.66 2.05 1.61 1.60 1.39 1.33 1.37 1.41 1.42 1.72 2.10 2.38 2.31 2.11 2.20 2.54 3.04 3.70 4.00 3.76 3.34 3.11 2.94 2.91 2.67 2.09 1.72 1.57 1.39 1.30
2.75 2.79 2.97 2.95 3.02 3.12 3.06 3.05 3.18 3.02 2.66 2.89 3.20 3.25 2.58 2.13 1.67 1.23 1.34 1.44 1.55 1.65 1.71 1.84 2.08 2.29 2.29 2.48 2.25 2.17 2.74 3.53 3.99 3.87 3.51 3.07 2.88 2.74 2.44 2.24 1.95 1.73 1.63
2.96 2.97 2.95 2.88 2.88 2.69 2.74 2.81 2.85 2.87 2.80 2.73 3.03 3.32 2.89 2.37 2.01 1.47 1.35 1.38 1.58 1.83 1.88 1.93 1.97 2.17 2.31 2.74 2.86 2.53 2.36 2.68 3.40 4.12 4.15 3.55 2.96 2.68 2.60 2.53 2.41 2.14 1.95
2.81 2.62 2.56 2.71 2.73 2.53 2.54 2.23 2.36 2.57 2.59 2.45 2.70 2.76 2.78 2.76 2.65 1.98 1.52 1.36 1.51 1.70 1.87 1.80 1.82 2.05 2.33 2.64 2.90 2.79 2.34 2.15 2.51 3.43 3.99 3.87 3.40 2.93 2.67 2.67 2.92 2.86 2.48
2.54 2.22 2.24 2.41 2.40 2.33 2.22 2.10 2.27 2.17 2.13 2.18 2.38 2.57 2.65 2.70 2.60 2.43 2.01 1.90 1.84 1.71 1.66 1.67 1.88 2.03 2.23 2.56 2.92 2.71 2.54 2.33 2.20 2.34 2.84 3.28 3.45 3.29 3.13 3.31 3.74 3.92 3.67
2.21 1.95 1.87 2.03 2.15 2.17 2.11 2.08 2.17 2.07 2.09 2.23 2.22 2.28 2.52 2.52 2.48 2.63 2.26 2.09 2.02 1.75 1.70 1.77 1.81 2.00 2.14 2.37 2.47 2.58 2.50 2.29 2.13 2.10 2.23 2.52 2.81 2.94 3.07 3.36 3.85 4.23 4.42
1.88 1.83 1.85 1.95 2.01 2.06 1.92 2.00 2.06 2.10 2.22 2.28 2.22 2.15 2.28 2.33 2.43 2.63 2.56 2.31 2.19 1.98 2.02 1.96 1.80 1.83 1.78 1.96 2.08 2.10 1.92 1.84 1.74 1.70 1.79 1.90 1.96 2.13 2.43 2.84 3.29 3.72 4.06
1.89 1.95 1.93 1.81 1.76 1.87 1.77 2.03 1.97 2.01 2.19 2.23 2.02 2.26 2.31 2.32 2.58 2.76 2.83 2.90 2.64 2.39 2.30 2.23 2.08 1.88 1.81 1.80 1.84 1.78 1.59 1.53 1.34 1.34 1.44 1.54 1.59 1.69 1.92 2.15 2.45 2.76 3.03
1.96 2.07 2.02 1.92 1.82 1.89 2.01 2.28 2.22 2.19 2.39 2.34 2.29 2.48 2.45 2.41 2.57 2.68 2.86 3.03 3.10 2.79 2.60 2.54 2.33 2.01 1.88 1.85 1.85 1.66 1.70 1.62 1.38 1.30 1.23 1.19 1.27 1.40 1.48 1.56 1.73 1.92 2.14
1.81 1.97 2.11 2.04 1.97 2.00 2.16 2.34 2.35 2.50 2.64 2.59 2.63 2.73 2.69 2.56 2.66 2.74 2.76 2.95 3.18 3.09 2.76 2.40 2.19 1.93 1.82 1.70 1.85 1.67 1.69 1.66 1.47 1.32 1.14 1.06 1.11 1.18 1.21 1.26 1.35 1.47 1.65
1.76 1.83 2.02 2.10 2.07 2.10 2.19 2.24 2.23 2.52 2.64 2.62 2.59 2.60 2.59 2.70 2.72 2.65 2.72 2.85 3.08 3.13 2.80 2.32 2.20 2.15 2.13 2.02 1.98 1.84 1.72 1.62 1.40 1.28 1.14 1.10 1.09 1.12 1.16 1.20 1.24 1.23 1.28
1.80 1.87 1.99 2.01 1.93 1.93 2.11 2.15 2.22 2.48 2.61 2.51 2.49 2.50 2.31 2.36 2.42 2.31 2.42 2.48 2.60 2.81 2.78 2.49 2.46 2.44 2.38 2.24 2.19 2.12 1.92 1.66 1.37 1.32 1.18 1.13 1.13 1.12 1.10 1.12 1.17 1.19 1.20
1.74 1.80 1.81 1.83 1.88 1.98 2.07 2.08 2.09 2.11 2.14 2.23 2.45 2.55 2.35 2.33 2.23 2.21 2.23 2.19 2.26 2.38 2.57 2.50 2.42 2.48 2.41 2.38 2.29 2.08 1.92 1.77 1.44 1.37 1.33 1.22 1.15 1.09 1.06 1.06 1.07 1.15 1.25
1.60 1.69 1.76 1.84 1.90 1.94 1.97 2.03 2.07 2.03 2.02 2.07 2.21 2.27 2.25 2.21 2.15 2.23 2.14 2.11 2.17 2.29 2.42 2.43 2.35 2.47 2.47 2.39 2.38 2.20 2.19 2.04 1.85 1.61 1.53 1.41 1.39 1.34 1.25 1.15 1.09 1.08 1.18
1.66 1.73 1.79 1.81 1.81 1.79 1.69 1.72 1.78 1.82 1.96 1.93 1.84 1.86 1.88 1.91 1.92 1.93 1.79 1.93 2.12 2.23 2.27 2.29 2.28 2.43 2.59 2.62 2.43 2.34 2.39 2.36 2.19 1.89 1.75 1.59 1.51 1.41 1.37 1.31 1.23 1.15 1.11
1.74 1.77 1.74 1.78 1.77 1.52 1.65 1.65 1.64 1.77 1.88 1.88 1.78 1.68 1.59 1.59 1.54 1.54 1.51 1.58 1.82 2.00 2.10 2.20 2.19 2.32 2.54 2.72 2.78 2.71 2.57 2.49 2.47 2.30 2.17 2.08 1.84 1.70 1.57 1.43 1.38 1.28 1.16
1.84 1.80 1.73 1.72 1.76 1.80 1.82 1.65 1.51 1.50 1.62 1.68 1.66 1.64 1.46 1.37 1.52 1.48 1.52 1.48 1.50 1.63 1.77 1.96 2.04 2.03 2.20 2.45 2.66 2.60 2.67 2.70 2.69 2.69 2.67 2.60 2.25 1.98 1.70 1.50 1.34 1.07 0.97
2.00 1.96 1.90 1.84 1.85 1.83 1.76 1.54 1.54 1.48 1.53 1.57 1.60 1.65 1.65 1.56 1.58 1.68 1.65 1.58 1.47 1.42 1.50 1.57 1.68 1.81 2.02 2.29 2.52 2.50 2.53 2.60 2.63 2.62 2.65 2.65 2.35 2.13 1.85 1.63 1.48 1.19 1.00
2.09 2.01 1.98 2.03 1.98 1.99 2.03 1.82 1.80 1.67 1.71 1.76 1.80 1.80 1.75 1.65 1.74 1.67 1.61 1.61 1.54 1.51 1.55 1.59 1.56 1.67 1.91 2.03 2.16 2.24 2.22 2.27 2.20 2.11 2.22 2.39 2.36 2.27 2.10 1.81 1.55 1.35 1.10
2.17 2.18 2.18 2.17 2.18 2.21 2.43 2.23 2.03 1.88 1.92 1.93 2.02 2.00 2.00 1.81 1.77 1.68 1.56 1.59 1.60 1.61 1.65 1.60 1.54 1.51 1.54 1.72 1.91 1.94 2.09 2.23 2.11 1.94 1.70 1.81 2.00 2.18 2.31 2.08 1.81 1.60 1.46